Flag for Japan Weather past 2 weeks in Yokosuka, Japan

64 °F

Passing clouds.

Feels Like: 64 °F
Forecast: 62 / 74 °F
Wind: 23 mph from North

Location: Tokyo International Airport

Current Time: Oct 7, 2015 at 9:23:06 AM

Latest Report: Oct 7, 2015 at 9:00 AM

Visibility: N/A

Pressure: 29.95 "Hg

Humidity: 60%

Dew point: 50 °F

Location of YokosukaLocation

Historic Weather in Yokosuka — Graph


Yokosuka temperature yesterday

Maximum temperature yesterday: 72 °F (at 1:30 PM)
Minimum temperature yesterday: 61 °F (at 5:00 AM)
Average temperature yesterday: 65 °F

Past Weeks' High & Low Weather Summary

High82 °F (Oct 2, 2:30 PM)100% (Sep 25, 2:00 AM)30.24 "Hg (Sep 25, 2:00 AM)
Low59 °F (Oct 7, 4:30 AM)29% (Sep 30, 1:00 PM)29.36 "Hg (Oct 2, 3:30 AM)
Average70 °F73%29.95 "Hg
* Reported Sep 22 8:00 AM — Oct 7 8:00 AM, Yokosuka, Weather by CustomWeather, © 2015

Note: Actual official high and low records may vary slightly from our data, if they occured in-between our weather recording intervals... More about our weather records


Yokosuka weather history for previous 24 hours

Time TempWeatherWind HumidityBarometerVisibility
8:00 AM
Wed, Oct 7
63 °FPassing clouds.23 mph64%29.95 "HgN/A
7:30 AM63 °FPassing clouds.22 mph68%29.95 "HgN/A
7:00 AM61 °FPassing clouds.18 mph72%29.95 "HgN/A
6:30 AM61 °FPassing clouds.20 mph77%29.95 "HgN/A
6:00 AM59 °FPassing clouds.18 mph77%29.95 "HgN/A
5:30 AM61 °FPassing clouds.17 mph77%29.95 "HgN/A
5:00 AM61 °FPassing clouds.20 mph72%29.98 "HgN/A
4:30 AM59 °FClear.17 mph77%29.98 "Hg10 mi
4:00 AM61 °FPassing clouds.16 mph72%29.98 "HgN/A
3:30 AM61 °FPassing clouds.17 mph72%29.98 "HgN/A
3:00 AM61 °FPassing clouds.18 mph72%29.98 "HgN/A
2:30 AM61 °FClear.20 mph72%29.98 "Hg10 mi
2:00 AM61 °FPassing clouds.17 mph72%29.98 "HgN/A
1:30 AM61 °FPassing clouds.17 mph72%29.98 "HgN/A
1:00 AM61 °FPassing clouds.16 mph77%29.98 "HgN/A
12:30 AM63 °FPassing clouds.16 mph73%30.01 "HgN/A
12:00 AM63 °FPassing clouds.18 mph73%30.01 "HgN/A
11:30 PM
Tue, Oct 6
63 °FPassing clouds.17 mph73%30.01 "HgN/A
11:00 PM63 °FPassing clouds.18 mph73%30.01 "HgN/A
10:30 PM63 °FPassing clouds.16 mph77%30.04 "HgN/A
10:00 PM64 °FPassing clouds.18 mph73%30.04 "HgN/A
9:30 PM64 °FPassing clouds.18 mph73%30.04 "HgN/A
9:00 PM63 °FPassing clouds.15 mph77%30.04 "HgN/A
8:30 PM64 °FPassing clouds.16 mph73%30.04 "HgN/A
8:00 PM64 °FPassing clouds.17 mph73%30.04 "HgN/A
7:30 PM64 °FPassing clouds.18 mph73%30.04 "HgN/A
7:00 PM64 °FPassing clouds.21 mph78%30.04 "HgN/A
6:30 PM66 °FPassing clouds.22 mph73%30.04 "HgN/A
6:00 PM66 °FPassing clouds.25 mph68%30.04 "HgN/A
5:30 PM66 °FPassing clouds.22 mph64%30.01 "HgN/A
5:00 PM68 °FPassing clouds.20 mph60%30.01 "HgN/A
4:30 PM68 °FPassing clouds.21 mph60%30.01 "HgN/A
4:00 PM68 °FScattered clouds.21 mph64%30.01 "HgN/A
3:30 PM68 °FScattered clouds.20 mph64%30.01 "HgN/A
3:00 PM68 °FScattered clouds.16 mph56%30.01 "HgN/A
2:30 PM70 °FScattered clouds.16 mph53%30.01 "HgN/A
2:00 PM70 °FPartly sunny.13 mph53%30.01 "HgN/A
1:30 PM72 °FScattered clouds.13 mph50%30.01 "HgN/A
1:00 PM70 °FScattered clouds.15 mph53%30.04 "HgN/A
12:30 PM70 °FPassing clouds.13 mph53%30.04 "HgN/A
12:00 PM70 °FPassing clouds.15 mph57%30.07 "HgN/A
11:30 AM70 °FPassing clouds.13 mph57%30.07 "HgN/A
11:00 AM68 °FPassing clouds.12 mph60%30.09 "HgN/A
10:30 AM68 °FPassing clouds.13 mph60%30.12 "HgN/A
10:00 AM66 °FPartly sunny.15 mph60%30.12 "HgN/A
9:30 AM66 °FScattered clouds.15 mph64%30.12 "HgN/A
9:00 AM66 °FScattered clouds.14 mph64%30.12 "HgN/A
Weather by CustomWeather, © 2015

See weather overviewHow to use our weather pages